Location: Newark
(15.4608°S, 41.1635°W)
Time: 22:33:27
(UTC+00:00)

Vanguard 3 - Pass Details

Date: 09 March 2021
Orbit: 508 x 3262 km, 33.3° (Epoch: 12 April)

Event Time Altitude Azimuth Distance (km) Brightness Sun altitude
Exits shadow 07:04:04 - 198° (SSW) 2,325 9.4 -25.3°
Reaches altitude 10° 07:05:03 10° 187° (S) 2,248 9.5 -25.1°
Maximum altitude 07:06:57 12° 165° (SSE) 2,309 9.8 -24.6°
Drops below altitude 10° 07:09:08 10° 144° (SE) 2,671 10.4 -24.1°
Sets 07:14:47 0° 115° (ESE) 4,294 12.2 -22.8°
